Location: Frizzleburg
(41.0764°N, 80.4548°W)
Time: 22:39:31
(UTC+00:00)

STARLINK - Pass Details

Date: 17 November 2019
Orbit: 548 x 551 km, 53.0° (Epoch: 04 December)

Event Time Altitude Azimuth Distance (km) Brightness Sun altitude
Exits shadow 09:57:40 31° 167° (SSE) 981 5.0 -25.2°
Drops below altitude 10° 10:02:35 10° 66° (ENE) 1,844 7.1 -24.2°
Enters shadow 11:04:31 -61° 235° (SW) 11,777 10.3 -12.7°
Maximum altitude 11:38:57 38° 331° (NNW) 855 4.3 -6.5°
